Location: Te Maire Creek
(41.1333°S, 175.9167°E)
Time: 21:24:50
(UTC+00:00)

USA 238 - Pass Details

Date: 19 May 2024
Orbit: 912 x 1299 km, 63.4° (Epoch: 29 April)

Event Time Altitude Azimuth Distance (km) Brightness Sun altitude
Exits shadow 17:50:19 18° 222° (SW) 2,271 5.0 -17.1°
Maximum altitude 17:55:17 67° 300° (WNW) 1,047 3.5 -16.2°
Drops below altitude 10° 18:01:20 10° 21° (NNE) 2,629 6.2 -15.1°
Sets 18:03:48 0° 24° (NNE) 3,547 7.0 -14.7°
